Location: Newark
(47.0667°N, 8.7500°E)
Time: 14:20:24
(UTC+00:00)

Envisat - Visible Passes

Search period start: 19 October 2019 00:00
Search period end: 29 October 2019 00:00
Orbit: 764 x 766 km, 98.1° (Epoch: 19 October)

Date Brightness Start Highest point End Pass type
(mag) Time Alt. Az. Time Alt. Az. Time Alt. Az.
19 Oct 6.1 05:12:59 10° NE 05:16:26 18° E 05:19:52 10° SE visible
19 Oct 4.6 18:08:54 10° SSW 18:13:33 36° W 18:18:15 10° NNW visible
20 Oct 3.2 17:31:35 10° S 17:36:39 76° WSW 17:41:46 10° NNW visible
20 Oct 6.3 19:16:05 10° W 19:16:32 10° W 19:17:00 10° W visible
21 Oct 3.1 16:55:01 10° SE 16:59:57 53° ENE 17:04:54 10° N visible
21 Oct 5.5 18:35:22 10° SW 18:39:17 22° W 18:43:13 10° NW visible
22 Oct 6.3 05:02:16 10° NE 05:05:02 14° E 05:07:46 10° ESE visible
22 Oct 4.2 17:57:23 10° S 18:02:14 45° W 18:07:07 10° NNW visible
23 Oct 3.0 17:20:18 10° SSE 17:25:23 87° ENE 17:30:31 10° NNW visible
23 Oct 6.1 19:02:47 10° WSW 19:05:07 13° W 19:07:26 10° WNW visible
24 Oct 3.4 16:43:58 10° SE 16:48:44 43° ENE 16:53:32 10° N visible
24 Oct 5.1 18:23:38 10° SSW 18:27:55 27° W 18:32:14 10° NW visible
25 Oct 6.5 04:51:59 10° ENE 04:53:36 11° E 04:55:13 10° ESE visible
25 Oct 3.7 17:45:57 10° S 17:50:55 56° W 17:55:57 10° NNW visible
26 Oct 2.9 17:09:05 10° SSE 17:14:08 71° ENE 17:19:13 10° N visible
26 Oct 5.9 18:50:32 10° SW 18:53:41 16° W 18:56:52 10° NW visible
27 Oct 6.0 05:15:47 10° NE 05:19:28 20° E 05:23:06 10° SE visible
27 Oct 4.7 18:11:59 10° SSW 18:16:33 34° W 18:21:10 10° NNW visible
28 Oct 3.3 17:34:34 10° S 17:39:38 70° WSW 17:44:44 10° NNW visible
